Temperature
29 30 31 31 31 31 31 30 30 30 31 30 30 29 29 28 27 26 25 24 24 23 22 21 20 20 19 19 19 19 19 19 18 18 18 18 18 17 17 17 17 17 17 17
30 30 31 31 31 31 30 30 30 30 30 30 30 30 30 29 27 27 26 25 24 23 22 21 20 20 19 19 19 19 19 18 18 18 18 18 17 17 17 17 17 17 17 17
30 31 31 31 31 30 31 31 30 30 30 30 30 30 30 29 28 27 26 25 24 23 23 21 20 20 19 19 19 19 19 18 18 18 18 17 17 17 17 17 17 17 17 17
31 32 31 31 31 31 31 31 31 30 30 31 30 30 30 30 29 28 26 25 24 24 23 22 21 20 20 20 19 19 19 19 18 18 18 17 17 17 17 17 17 17 17 17
31 31 31 30 31 31 31 31 31 30 30 30 30 30 31 30 29 29 27 26 25 24 23 22 21 21 20 20 19 19 19 19 18 18 18 17 17 17 17 17 17 17 17 17
31 32 31 31 31 31 31 30 30 30 30 29 30 30 30 31 30 29 28 26 25 24 23 22 22 21 20 20 19 19 19 19 18 18 18 17 17 17 17 17 17 17 17 17
31 31 31 31 31 31 31 30 30 29 29 30 30 30 30 30 30 29 28 27 25 24 23 23 22 21 20 20 19 19 19 18 18 18 18 17 17 17 17 17 17 17 17 17
30 30 31 31 31 31 31 31 30 29 29 30 30 30 30 30 29 28 27 27 25 24 24 23 22 21 20 19 19 19 19 18 18 18 18 17 17 17 17 17 17 16 16 16
31 31 31 31 31 31 31 31 32 31 30 30 30 30 30 29 29 28 27 26 25 25 24 23 22 21 20 19 19 19 18 18 18 18 18 17 17 17 17 16 16 16 16 16
31 30 31 31 31 30 31 31 31 30 29 29 30 30 30 29 29 29 28 27 25 24 24 23 22 21 20 20 19 18 18 18 18 18 17 17 17 17 17 16 16 16 16 16
31 30 30 30 30 30 30 30 30 30 30 29 29 30 30 29 29 29 28 26 25 24 23 23 22 21 21 20 19 18 18 18 17 17 17 17 17 17 17 16 16 16 16 16
30 30 30 30 31 31 31 30 30 29 29 29 29 29 30 29 29 28 27 26 24 23 23 22 21 21 20 20 19 18 18 18 18 17 17 17 17 16 16 16 16 16 16 16
29 29 29 29 30 30 30 30 30 30 30 29 29 29 29 28 28 27 26 25 23 23 22 22 21 20 20 19 19 18 18 18 18 17 17 16 16 16 16 16 16 16 16 16
27 29 29 29 29 30 29 29 29 29 30 29 29 29 29 28 28 27 25 24 23 22 21 21 20 19 19 19 18 18 18 18 17 17 17 16 16 16 16 16 16 16 15 15
28 28 29 29 29 29 29 29 29 29 29 29 29 29 29 28 27 26 25 24 23 22 21 20 20 19 18 18 18 18 18 18 17 17 16 16 16 16 16 15 15 15 15 15
27 27 28 28 29 29 28 28 29 28 28 29 29 28 28 27 26 25 24 24 23 22 21 20 19 19 18 18 17 17 17 17 17 17 16 16 16 16 16 15 15 15 15 15
27 27 27 27 28 28 27 28 28 28 28 28 28 28 28 27 26 25 24 23 23 22 21 20 19 19 18 18 18 17 17 17 17 16 16 16 16 16 16 15 15 15 15 15
25 25 26 27 26 25 27 28 28 28 28 28 28 27 27 26 25 24 23 23 22 22 21 20 19 19 18 18 18 17 17 17 16 16 16 16 16 15 15 15 15 15 15 15
26 25 26 26 26 26 27 27 27 27 26 27 27 26 25 24 24 24 22 22 21 20 20 19 19 19 18 18 17 17 17 16 16 16 16 16 15 15 15 15 15 15 14 14
25 24 25 25 25 25 26 27 26 26 26 26 25 25 24 24 25 25 21 21 20 20 19 19 19 18 18 17 17 17 17 16 16 16 16 15 15 15 15 15 14 14 14 14
24 23 24 25 25 26 26 25 25 25 25 24 24 23 23 23 23 22 20 20 19 19 19 18 18 18 17 17 17 16 16 16 16 16 15 15 15 15 14 14 14 14 14 14
24 24 24 24 24 24 24 24 24 24 23 23 22 22 22 21 20 20 19 19 19 18 18 18 18 17 17 17 17 16 16 16 16 15 15 15 15 14 14 14 14 14 13 13
23 24 25 24 24 23 22 23 22 22 22 22 21 21 20 20 20 19 19 18 18 18 17 17 17 17 17 17 16 16 16 15 15 15 15 15 14 14 14 14 14 13 13 13
22 22 22 22 23 23 22 21 21 21 21 20 20 20 20 20 19 18 18 18 17 17 17 17 16 16 16 16 16 16 15 15 15 15 15 14 14 14 14 13 13 13 13 13
21 21 21 21 22 21 21 20 20 20 19 19 19 19 19 19 18 18 18 17 17 17 16 16 16 16 16 16 16 16 15 15 14 14 14 14 14 14 13 13 13 13 13 13
21 21 21 21 21 21 21 19 19 19 19 19 18 18 18 18 18 17 17 17 16 16 16 16 16 16 15 15 15 15 15 15 14 14 14 14 14 13 13 13 13 13 13 13
Wind_Speed
8 9 8 6 6 6 6 6 5 3 1 4 5 5 5 6 7 7 8 8 8 8 8 8 8 7 7 6 6 6 6 5 5 4 4 3 3 2 2 2 2 2 2 2
8 10 7 5 6 7 7 7 4 1 1 4 4 5 5 7 9 8 8 8 8 8 8 8 8 8 7 7 6 6 6 6 6 4 4 3 2 2 2 2 2 3 3 3
12 5 4 7 8 8 8 7 6 4 2 5 5 5 5 6 8 8 8 8 8 8 9 9 9 9 8 7 7 6 6 6 6 6 4 3 3 3 3 3 3 3 3 3
10 7 6 9 9 9 8 5 6 5 6 4 4 4 3 5 7 9 9 9 9 9 8 9 9 9 8 8 7 7 7 6 6 6 5 5 4 3 3 2 2 3 3 3
8 7 8 9 8 8 6 3 5 6 8 7 6 6 2 5 5 7 9 10 10 9 9 8 8 8 8 7 7 7 7 7 6 6 6 5 5 3 3 3 2 3 2 3
10 7 8 7 6 6 5 5 5 7 7 8 5 6 3 2 2 3 7 9 9 9 8 8 8 7 7 7 7 7 7 7 7 7 6 6 5 4 3 3 3 3 3 2
11 11 9 7 7 8 9 9 6 6 7 5 2 6 2 2 0 2 4 7 8 8 8 8 7 7 7 8 8 8 8 7 7 7 6 6 5 5 4 4 4 4 3 3
11 10 9 8 9 8 10 11 8 7 7 5 4 5 1 2 1 1 3 6 8 8 8 7 7 7 7 8 8 8 8 8 7 7 6 5 5 4 4 4 4 4 3 3
8 8 6 6 7 8 8 9 9 10 10 9 5 4 3 3 2 3 4 6 7 7 7 6 7 7 7 8 8 8 8 7 7 7 6 5 5 4 4 4 5 4 4 3
8 8 7 6 7 6 8 7 7 9 9 10 8 7 3 3 3 3 4 5 6 6 6 6 6 7 7 8 8 8 7 7 7 6 6 5 5 5 4 4 3 3 3 3
11 10 8 8 8 8 8 8 8 8 9 10 10 4 1 2 2 2 3 4 4 4 5 6 6 6 7 8 8 8 8 7 7 6 6 5 5 5 5 5 4 4 3 3
9 10 10 9 6 6 9 9 10 9 8 9 10 5 3 1 1 1 2 3 3 3 4 5 6 6 6 6 7 7 7 7 7 6 6 6 5 5 6 5 5 5 4 4
6 9 11 10 10 9 8 9 10 11 10 10 11 5 4 2 2 2 2 3 3 3 3 4 5 5 6 5 5 6 7 7 6 6 6 6 6 6 6 5 5 5 5 5
5 11 12 12 7 6 8 9 9 11 11 11 11 8 3 3 3 2 2 2 3 3 3 4 4 5 5 5 5 5 5 5 6 6 6 6 5 5 5 5 5 5 5 5
6 10 11 10 7 7 8 9 10 11 12 13 10 8 5 3 4 3 2 3 3 3 3 4 4 4 5 5 5 5 5 5 5 5 5 5 5 5 4 4 5 4 5 5
5 8 9 11 9 9 9 10 11 12 12 12 11 9 3 2 2 3 3 4 4 4 4 4 4 5 5 5 5 5 5 5 5 5 5 4 4 4 4 4 4 4 4 4
6 7 10 12 10 11 14 12 11 11 11 12 12 8 4 4 4 4 4 4 4 4 4 4 5 5 5 5 5 5 5 5 5 5 5 4 4 4 4 4 4 4 4 4
8 8 8 10 10 15 8 3 7 9 9 9 8 5 5 4 4 4 4 4 3 3 3 3 4 4 5 5 5 5 5 5 5 5 5 5 5 5 5 5 5 5 5 5
9 9 8 10 14 13 9 6 6 9 9 7 6 5 4 3 4 4 1 1 2 2 2 3 3 4 4 4 5 5 5 5 5 6 6 6 5 6 5 5 5 5 5 5
8 9 10 11 13 14 6 3 5 8 10 4 4 4 4 4 7 3 0 2 2 2 2 2 3 3 4 4 4 5 6 6 6 6 6 6 6 6 6 6 5 5 5 5
9 9 12 13 13 9 2 2 5 9 4 1 2 3 4 4 5 2 2 2 2 2 2 2 2 3 3 4 5 5 6 6 6 6 6 6 7 7 6 6 5 5 6 5
10 10 11 11 13 10 1 3 5 3 1 1 1 2 3 2 2 1 1 2 2 2 2 2 2 2 3 4 5 6 6 5 5 6 6 7 7 7 6 6 6 6 6 6
8 8 7 8 6 1 1 1 1 2 1 1 1 1 2 2 2 2 2 2 2 2 2 3 3 3 3 4 5 6 5 5 6 6 7 7 7 6 6 7 7 6 6 6
6 4 6 7 6 4 3 2 2 1 2 2 2 2 2 2 2 3 3 3 3 2 3 3 3 4 4 4 5 5 5 5 6 7 7 7 7 7 6 6 6 6 6 5
6 5 7 9 8 6 5 4 3 3 3 3 3 3 4 3 4 4 4 4 4 4 4 4 4 5 5 4 4 5 5 6 7 7 7 7 7 6 6 6 5 6 5 4
9 9 9 8 6 7 6 5 5 5 4 4 4 5 4 4 4 4 4 4 5 5 5 5 5 5 5 5 4 4 5 6 7 7 7 6 6 5 5 5 5 3 4 3
Wind_Direction
209 230 233 238 252 277 289 294 307 322 296 254 249 247 219 190 201 198 191 190 191 191 181 178 182 182 181 184 189 196 200 189 190 191 193 190 189 196 199 209 202 225 239 240
217 231 243 255 252 251 259 272 286 301 273 265 273 264 234 202 206 208 201 197 197 190 183 185 186 186 187 189 194 198 203 197 196 195 202 201 196 204 203 213 192 225 229 242
230 233 224 237 239 244 254 266 282 296 273 230 262 247 213 198 205 206 207 203 199 195 190 188 189 193 192 194 197 201 202 202 201 199 198 188 184 201 195 203 198 209 217 223
237 235 232 240 241 247 255 267 271 266 262 257 251 279 195 190 198 202 205 202 200 196 193 189 191 194 196 197 197 198 197 198 198 198 200 196 201 209 212 214 196 199 209 219
225 224 231 243 248 247 264 275 260 262 266 268 240 267 216 179 212 203 203 202 200 195 194 193 195 196 197 194 193 188 187 191 194 195 194 201 212 215 212 208 186 211 196 215
246 231 237 247 245 230 217 220 230 241 252 254 251 267 272 181 216 200 191 194 196 193 192 192 192 190 190 188 189 185 183 188 191 193 193 203 211 215 220 224 213 218 209 213
227 224 218 227 223 202 218 238 246 238 233 247 206 261 287 45 206 224 194 188 187 189 190 190 190 190 190 189 188 184 181 184 187 190 196 205 211 213 219 232 227 239 231 225
224 219 206 213 233 234 228 245 258 274 276 275 207 255 295 94 110 197 198 183 181 190 192 190 189 189 188 188 186 184 183 185 187 192 197 205 215 223 224 228 242 237 250 246
237 226 187 206 229 243 232 241 265 272 275 274 263 249 229 165 188 188 180 178 185 190 189 185 177 178 179 181 183 184 181 183 188 192 196 201 208 224 233 229 234 241 248 245
248 248 215 195 206 221 253 255 251 257 269 275 268 254 251 195 204 188 186 184 183 184 184 178 172 172 177 178 179 182 182 186 190 192 199 197 201 210 224 235 241 252 251 255
242 243 225 204 221 225 212 227 246 261 268 275 280 279 46 189 214 200 182 169 165 173 177 173 171 171 173 177 180 185 188 192 196 199 200 206 207 211 216 224 230 236 239 237
231 245 245 227 217 239 236 239 239 251 259 262 278 280 103 141 186 182 167 148 149 162 166 167 165 167 173 181 184 187 195 196 197 198 199 205 211 216 218 220 224 228 229 231
219 237 237 227 211 205 224 232 243 255 258 261 268 263 118 145 175 174 167 162 162 168 163 164 166 172 178 183 187 193 197 200 196 191 199 204 211 217 222 225 227 229 231 234
239 241 246 253 256 235 227 232 237 249 258 262 263 269 248 221 216 209 182 175 172 176 171 171 171 177 182 189 187 190 198 198 200 196 199 203 215 220 223 225 228 232 234 235
243 245 246 258 267 258 252 249 240 244 261 270 274 267 268 241 227 218 208 190 185 185 186 183 185 181 187 192 194 193 193 192 197 196 202 205 212 217 221 225 229 231 236 239
243 250 245 246 244 245 255 253 249 249 254 260 263 261 256 241 208 211 212 209 204 199 198 197 196 191 193 196 197 196 198 194 193 198 205 201 205 211 217 222 225 228 231 237
234 237 245 246 241 247 249 250 250 249 250 254 258 257 223 225 225 231 232 219 219 220 214 206 202 201 200 200 196 198 201 199 199 202 204 204 206 212 218 219 216 219 223 230
233 240 246 251 241 247 256 241 251 257 256 254 259 252 247 250 250 255 242 223 225 233 225 216 212 206 204 200 196 201 198 201 204 205 206 210 211 213 215 217 218 221 223 231
230 230 245 250 247 248 241 230 240 247 254 256 252 248 248 246 238 234 217 237 249 256 252 232 224 214 206 202 199 202 208 210 214 215 216 216 216 218 216 219 222 226 233 241
210 221 239 244 254 256 247 220 245 252 244 235 253 249 247 245 249 239 281 296 287 274 260 240 224 212 204 203 206 213 221 220 223 224 224 222 218 221 222 223 226 228 232 239
203 214 232 243 250 254 273 219 223 239 257 12 263 252 247 257 304 327 302 306 293 273 255 230 217 215 211 204 207 220 230 234 234 230 228 226 222 223 223 222 226 229 232 235
232 230 230 241 248 249 158 197 233 283 14 319 274 255 257 287 333 334 327 320 310 291 273 242 220 221 219 213 215 227 234 238 239 235 230 228 227 229 220 217 224 229 231 231
243 257 254 247 248 286 150 239 312 335 322 311 275 257 248 270 302 319 326 324 319 306 278 255 241 231 231 231 231 237 240 236 234 235 232 228 228 230 224 222 224 227 226 234
234 262 257 250 244 246 238 246 250 294 298 300 302 283 254 259 273 286 298 303 303 296 286 268 257 250 248 244 240 240 239 237 236 235 231 226 226 225 222 226 226 232 235 234
263 247 246 248 251 257 234 242 255 277 280 282 286 275 266 271 268 272 281 286 286 285 279 264 256 256 257 249 244 243 236 234 237 237 232 230 228 225 222 226 235 236 240 247
249 250 251 256 257 256 254 252 260 261 263 272 277 276 270 265 267 273 275 276 278 278 276 268 263 262 262 257 247 242 235 233 237 237 234 231 227 222 225 224 232 226 233 215
Height
1501 1499 1496 1493 1493 1494 1495 1497 1497 1495 1493 1495 1496 1496 1497 1502 1505 1506 1509 1512 1514 1516 1519 1521 1523 1524 1525 1525 1526 1527 1528 1529 1530 1531 1531 1532 1533 1534 1534 1534 1534 1534 1535 1535
1497 1495 1490 1491 1492 1493 1494 1497 1495 1493 1493 1495 1494 1493 1492 1497 1501 1503 1506 1509 1512 1514 1517 1519 1520 1522 1522 1523 1524 1525 1526 1527 1528 1529 1530 1531 1532 1532 1533 1533 1533 1533 1534 1534
1493 1489 1490 1492 1492 1494 1492 1493 1493 1495 1493 1492 1493 1493 1490 1492 1497 1501 1504 1506 1509 1511 1513 1516 1518 1519 1520 1521 1522 1523 1524 1525 1526 1527 1529 1529 1530 1531 1532 1532 1531 1532 1532 1533
1488 1486 1489 1490 1490 1490 1492 1486 1489 1492 1494 1492 1492 1498 1489 1487 1492 1496 1500 1503 1505 1508 1511 1513 1515 1517 1518 1519 1520 1521 1522 1523 1524 1525 1527 1528 1529 1530 1530 1530 1530 1530 1530 1531
1485 1485 1488 1489 1486 1486 1487 1486 1488 1490 1491 1492 1489 1494 1487 1484 1489 1490 1494 1498 1502 1505 1508 1510 1512 1514 1515 1517 1518 1518 1519 1521 1522 1523 1524 1526 1527 1528 1529 1529 1529 1529 1529 1529
1482 1482 1484 1484 1483 1485 1486 1488 1489 1488 1489 1501 1490 1493 1491 1481 1484 1485 1489 1495 1499 1502 1505 1508 1510 1512 1513 1514 1516 1517 1517 1519 1520 1521 1522 1524 1525 1526 1527 1527 1527 1528 1528 1528
1483 1480 1480 1482 1484 1485 1486 1491 1499 1502 1500 1496 1486 1491 1488 1480 1482 1485 1488 1492 1496 1500 1503 1505 1507 1509 1510 1512 1513 1515 1516 1517 1518 1519 1521 1522 1523 1524 1525 1525 1526 1526 1526 1526
1485 1484 1476 1478 1480 1481 1482 1483 1499 1509 1503 1490 1487 1489 1481 1480 1484 1486 1488 1490 1494 1498 1500 1502 1504 1506 1508 1509 1511 1513 1514 1515 1516 1517 1518 1520 1521 1523 1523 1523 1524 1524 1524 1524
1477 1480 1473 1475 1476 1477 1480 1481 1475 1485 1488 1492 1485 1481 1478 1480 1482 1484 1486 1489 1492 1495 1498 1500 1502 1504 1506 1507 1509 1510 1511 1513 1514 1516 1517 1518 1519 1520 1521 1521 1521 1522 1521 1522
1471 1480 1472 1474 1476 1477 1475 1474 1479 1485 1500 1502 1489 1484 1480 1479 1479 1481 1484 1488 1491 1494 1496 1498 1500 1502 1504 1505 1507 1508 1509 1511 1512 1514 1515 1516 1516 1517 1518 1519 1519 1519 1519 1519
1470 1477 1475 1475 1477 1476 1479 1479 1480 1480 1482 1496 1498 1487 1471 1475 1477 1479 1482 1486 1490 1492 1494 1496 1498 1500 1502 1504 1505 1507 1508 1509 1510 1511 1512 1513 1514 1515 1515 1516 1516 1516 1516 1517
1471 1472 1475 1472 1469 1470 1470 1472 1476 1486 1488 1485 1488 1485 1470 1474 1477 1480 1483 1487 1489 1492 1493 1495 1497 1498 1500 1502 1503 1504 1505 1507 1507 1508 1509 1510 1511 1512 1513 1513 1513 1513 1513 1514
1472 1474 1483 1480 1476 1472 1472 1471 1470 1471 1476 1481 1487 1483 1472 1475 1478 1481 1484 1487 1489 1491 1492 1494 1495 1496 1498 1499 1501 1502 1503 1504 1505 1506 1507 1508 1508 1509 1509 1510 1510 1510 1510 1511
1474 1470 1474 1480 1473 1466 1471 1471 1471 1473 1475 1477 1476 1475 1472 1474 1477 1480 1484 1486 1488 1490 1491 1492 1494 1495 1496 1497 1498 1499 1501 1502 1503 1503 1504 1504 1505 1506 1506 1507 1507 1508 1508 1508
1472 1470 1468 1466 1464 1465 1468 1470 1470 1473 1472 1474 1470 1471 1471 1473 1476 1480 1483 1485 1487 1489 1490 1491 1492 1493 1494 1495 1496 1497 1498 1499 1500 1500 1501 1501 1502 1503 1503 1504 1504 1505 1505 1506
1471 1471 1470 1471 1466 1467 1470 1468 1468 1470 1469 1469 1469 1470 1469 1474 1477 1480 1482 1483 1485 1487 1488 1489 1490 1491 1492 1492 1493 1494 1495 1496 1497 1497 1498 1499 1499 1500 1500 1501 1501 1502 1502 1502
1471 1472 1475 1472 1467 1469 1473 1466 1466 1467 1465 1467 1468 1468 1469 1473 1476 1478 1480 1481 1483 1484 1486 1487 1488 1488 1489 1490 1491 1491 1492 1493 1494 1495 1496 1496 1496 1497 1498 1498 1498 1498 1498 1499
1473 1474 1471 1470 1474 1484 1466 1461 1462 1464 1464 1464 1465 1467 1470 1473 1476 1478 1479 1480 1481 1483 1484 1485 1486 1486 1487 1488 1489 1489 1490 1490 1491 1492 1493 1493 1493 1494 1495 1495 1495 1495 1495 1495
1469 1473 1472 1471 1472 1469 1463 1462 1463 1465 1466 1465 1466 1468 1471 1473 1475 1475 1478 1479 1480 1481 1482 1483 1483 1484 1485 1485 1486 1487 1487 1488 1488 1489 1489 1490 1490 1491 1491 1491 1491 1491 1491 1491
1467 1470 1471 1471 1475 1473 1462 1460 1463 1465 1467 1465 1467 1469 1471 1472 1470 1471 1476 1478 1479 1479 1480 1480 1481 1482 1482 1483 1483 1484 1485 1485 1486 1486 1486 1487 1487 1487 1487 1487 1487 1488 1488 1488
1467 1470 1470 1469 1470 1462 1459 1461 1464 1470 1468 1466 1468 1470 1471 1472 1473 1474 1475 1476 1477 1477 1477 1478 1478 1479 1480 1480 1481 1481 1482 1482 1483 1483 1483 1483 1483 1483 1484 1484 1484 1484 1484 1484
1462 1463 1466 1466 1469 1467 1461 1462 1464 1466 1467 1468 1469 1470 1472 1473 1474 1474 1474 1474 1475 1475 1475 1476 1476 1476 1477 1477 1478 1478 1478 1479 1479 1479 1480 1480 1480 1480 1481 1480 1480 1481 1481 1481
1461 1459 1456 1459 1462 1463 1464 1464 1466 1467 1468 1469 1469 1470 1471 1472 1472 1473 1473 1473 1473 1473 1473 1473 1474 1474 1474 1474 1475 1475 1475 1475 1475 1475 1475 1475 1475 1476 1476 1476 1477 1477 1477 1478
1460 1463 1462 1461 1459 1462 1464 1465 1467 1468 1469 1469 1469 1470 1470 1470 1471 1471 1471 1471 1471 1471 1471 1471 1471 1471 1471 1471 1471 1471 1471 1471 1471 1471 1471 1471 1471 1471 1472 1472 1472 1474 1474 1474
1462 1463 1462 1462 1462 1463 1464 1465 1466 1467 1468 1468 1468 1468 1469 1468 1468 1469 1469 1469 1469 1468 1468 1468 1468 1468 1468 1468 1467 1467 1467 1467 1467 1467 1467 1467 1467 1468 1468 1468 1468 1469 1469 1470
1462 1462 1461 1459 1461 1462 1462 1464 1465 1466 1466 1466 1466 1466 1467 1467 1466 1466 1466 1466 1466 1465 1465 1465 1465 1465 1464 1464 1463 1463 1463 1463 1463 1462 1462 1463 1464 1464 1464 1464 1465 1464 1465 1465